iso_date,epoch_date,Year,Hour,Min,DOY,POS_DOY,Lat,Lon,BP,Ts,Ta,has_bp,has_ts,has_ta,BuoyID,Buoy_Type,Buoy_Owner,Logistics,Hemisphere
2021-07-06T18:00:00Z,1625594400,2021,18,0,187.75,187.75,62.303,-20.437,1006.6,11.56,-999.0,yes,yes,no,300234066214690,BD2VHI,AOML,UNKNOWN,North
2021-07-06T21:00:00Z,1625605200,2021,21,0,187.875,187.875,62.295,-20.433,1006.6,11.51,-999.0,yes,yes,no,300234066214690,BD2VHI,AOML,UNKNOWN,North
2021-07-07T00:00:00Z,1625616000,2021,0,0,188.0,188.0,62.301,-20.427,1007.3,11.49,-999.0,yes,yes,no,300234066214690,BD2VHI,AOML,UNKNOWN,North
2021-07-07T03:00:00Z,1625626800,2021,3,0,188.125,188.125,62.306,-20.382,1007.7,11.43,-999.0,yes,yes,no,300234066214690,BD2VHI,AOML,UNKNOWN,North
2021-07-07T06:00:00Z,1625637600,2021,6,0,188.25,188.25,62.283,-20.339,1008.2,11.27,-999.0,yes,yes,no,300234066214690,BD2VHI,AOML,UNKNOWN,North
2021-07-07T09:00:00Z,1625648400,2021,9,0,188.375,188.375,62.269,-20.313,1009.7,11.3,-999.0,yes,yes,no,300234066214690,BD2VHI,AOML,UNKNOWN,North
2021-07-07T12:00:00Z,1625659200,2021,12,0,188.5,188.5,62.269,-20.279,1010.5,11.31,-999.0,yes,yes,no,300234066214690,BD2VHI,AOML,UNKNOWN,North
2021-07-07T15:00:00Z,1625670000,2021,15,0,188.625,188.625,62.27,-20.239,1011.0,11.36,-999.0,yes,yes,no,300234066214690,BD2VHI,AOML,UNKNOWN,North
2021-07-07T18:00:00Z,1625680800,2021,18,0,188.75,188.75,62.276,-20.206,1011.4,11.52,-999.0,yes,yes,no,300234066214690,BD2VHI,AOML,UNKNOWN,North
2021-07-07T21:00:00Z,1625691600,2021,21,0,188.875,188.875,62.284,-20.15,1012.2,11.51,-999.0,yes,yes,no,300234066214690,BD2VHI,AOML,UNKNOWN,North
2021-07-08T00:00:00Z,1625702400,2021,0,0,189.0,189.0,62.285,-20.119,1012.4,11.71,-999.0,yes,yes,no,300234066214690,BD2VHI,AOML,UNKNOWN,North
2021-07-08T03:00:00Z,1625713200,2021,3,0,189.125,189.125,62.3,-20.112,1012.2,11.66,-999.0,yes,yes,no,300234066214690,BD2VHI,AOML,UNKNOWN,North
2021-07-08T06:00:00Z,1625724000,2021,6,0,189.25,189.25,62.32,-20.088,1012.4,11.66,-999.0,yes,yes,no,300234066214690,BD2VHI,AOML,UNKNOWN,North
2021-07-08T09:00:00Z,1625734800,2021,9,0,189.375,189.375,62.336,-20.054,1013.8,11.52,-999.0,yes,yes,no,300234066214690,BD2VHI,AOML,UNKNOWN,North
2021-07-08T12:00:00Z,1625745600,2021,12,0,189.5,189.5,62.34,-20.023,1014.8,11.54,-999.0,yes,yes,no,300234066214690,BD2VHI,AOML,UNKNOWN,North
2021-07-08T15:00:00Z,1625756400,2021,15,0,189.625,189.625,62.351,-20.04,1015.3,11.68,-999.0,yes,yes,no,300234066214690,BD2VHI,AOML,UNKNOWN,North
2021-07-08T18:00:00Z,1625767200,2021,18,0,189.75,189.75,62.374,-20.056,1015.3,11.77,-999.0,yes,yes,no,300234066214690,BD2VHI,AOML,UNKNOWN,North
2021-07-08T21:00:00Z,1625778000,2021,21,0,189.875,189.875,62.397,-20.031,1016.1,11.71,-999.0,yes,yes,no,300234066214690,BD2VHI,AOML,UNKNOWN,North
2021-07-09T00:00:00Z,1625788800,2021,0,0,190.0,190.0,62.408,-20.011,1016.8,11.69,-999.0,yes,yes,no,300234066214690,BD2VHI,AOML,UNKNOWN,North
2021-07-09T03:00:00Z,1625799600,2021,3,0,190.125,190.125,62.419,-20.016,1016.3,11.66,-999.0,yes,yes,no,300234066214690,BD2VHI,AOML,UNKNOWN,North
2021-07-09T06:00:00Z,1625810400,2021,6,0,190.25,190.25,62.442,-20.055,1015.5,11.6,-999.0,yes,yes,no,300234066214690,BD2VHI,AOML,UNKNOWN,North
2021-07-09T09:00:00Z,1625821200,2021,9,0,190.375,190.375,62.476,-20.049,1015.7,11.61,-999.0,yes,yes,no,300234066214690,BD2VHI,AOML,UNKNOWN,North
2021-07-09T12:00:00Z,1625832000,2021,12,0,190.5,190.5,62.499,-20.014,1016.1,11.72,-999.0,yes,yes,no,300234066214690,BD2VHI,AOML,UNKNOWN,North
2021-07-09T15:00:00Z,1625842800,2021,15,0,190.625,190.625,62.515,-20.022,1015.6,11.85,-999.0,yes,yes,no,300234066214690,BD2VHI,AOML,UNKNOWN,North
2021-07-09T18:00:00Z,1625853600,2021,18,0,190.75,190.75,62.543,-20.056,1014.8,11.85,-999.0,yes,yes,no,300234066214690,BD2VHI,AOML,UNKNOWN,North
2021-07-09T21:00:00Z,1625864400,2021,21,0,190.875,190.875,62.577,-20.065,1015.1,11.88,-999.0,yes,yes,no,300234066214690,BD2VHI,AOML,UNKNOWN,North
2021-07-10T00:00:00Z,1625875200,2021,0,0,191.0,191.0,62.607,-20.039,1015.1,11.75,-999.0,yes,yes,no,300234066214690,BD2VHI,AOML,UNKNOWN,North
2021-07-10T03:00:00Z,1625886000,2021,3,0,191.125,191.125,62.626,-20.014,1014.4,11.68,-999.0,yes,yes,no,300234066214690,BD2VHI,AOML,UNKNOWN,North
2021-07-10T06:00:00Z,1625896800,2021,6,0,191.25,191.25,62.639,-20.022,1014.4,11.64,-999.0,yes,yes,no,300234066214690,BD2VHI,AOML,UNKNOWN,North
2021-07-10T09:00:00Z,1625907600,2021,9,0,191.375,191.375,62.667,-20.027,1014.7,11.48,-999.0,yes,yes,no,300234066214690,BD2VHI,AOML,UNKNOWN,North
2021-07-10T12:00:00Z,1625918400,2021,12,0,191.5,191.5,62.693,-19.993,1015.0,11.63,-999.0,yes,yes,no,300234066214690,BD2VHI,AOML,UNKNOWN,North
2021-07-10T15:00:00Z,1625929200,2021,15,0,191.625,191.625,62.709,-19.969,1014.7,11.6,-999.0,yes,yes,no,300234066214690,BD2VHI,AOML,UNKNOWN,North
2021-07-10T18:00:00Z,1625940000,2021,18,0,191.75,191.75,62.722,-19.97,1015.0,11.51,-999.0,yes,yes,no,300234066214690,BD2VHI,AOML,UNKNOWN,North
2021-07-10T21:00:00Z,1625950800,2021,21,0,191.875,191.875,62.736,-19.961,1015.5,11.43,-999.0,yes,yes,no,300234066214690,BD2VHI,AOML,UNKNOWN,North
2021-07-11T00:00:00Z,1625961600,2021,0,0,192.0,192.0,62.746,-19.93,1016.1,11.26,-999.0,yes,yes,no,300234066214690,BD2VHI,AOML,UNKNOWN,North
2021-07-11T03:00:00Z,1625972400,2021,3,0,192.125,192.125,62.752,-19.896,1015.6,11.29,-999.0,yes,yes,no,300234066214690,BD2VHI,AOML,UNKNOWN,North
2021-07-11T06:00:00Z,1625983200,2021,6,0,192.25,192.25,62.759,-19.879,1015.6,11.26,-999.0,yes,yes,no,300234066214690,BD2VHI,AOML,UNKNOWN,North
2021-07-11T09:00:00Z,1625994000,2021,9,0,192.375,192.375,62.77,-19.871,1016.2,11.13,-999.0,yes,yes,no,300234066214690,BD2VHI,AOML,UNKNOWN,North
2021-07-11T12:00:00Z,1626004800,2021,12,0,192.5,192.5,62.792,-19.849,1017.0,11.38,-999.0,yes,yes,no,300234066214690,BD2VHI,AOML,UNKNOWN,North
2021-07-11T15:00:00Z,1626015600,2021,15,0,192.625,192.625,62.819,-19.824,1016.5,11.53,-999.0,yes,yes,no,300234066214690,BD2VHI,AOML,UNKNOWN,North
2021-07-11T18:00:00Z,1626026400,2021,18,0,192.75,192.75,62.834,-19.843,1015.5,11.87,-999.0,yes,yes,no,300234066214690,BD2VHI,AOML,UNKNOWN,North
2021-07-11T21:00:00Z,1626037200,2021,21,0,192.875,192.875,62.845,-19.905,1014.9,11.85,-999.0,yes,yes,no,300234066214690,BD2VHI,AOML,UNKNOWN,North
2021-07-12T00:00:00Z,1626048000,2021,0,0,193.0,193.0,62.849,-19.946,1014.2,11.69,-999.0,yes,yes,no,300234066214690,BD2VHI,AOML,UNKNOWN,North
2021-07-12T03:00:00Z,1626058800,2021,3,0,193.125,193.125,62.843,-20.007,1012.7,11.43,-999.0,yes,yes,no,300234066214690,BD2VHI,AOML,UNKNOWN,North
2021-07-12T06:00:00Z,1626069600,2021,6,0,193.25,193.25,62.839,-20.09,1010.9,11.39,-999.0,yes,yes,no,300234066214690,BD2VHI,AOML,UNKNOWN,North
2021-07-12T09:00:00Z,1626080400,2021,9,0,193.375,193.375,62.854,-20.146,1010.3,10.82,-999.0,yes,yes,no,300234066214690,BD2VHI,AOML,UNKNOWN,North
2021-07-12T12:00:00Z,1626091200,2021,12,0,193.5,193.5,62.866,-20.177,1009.4,10.62,-999.0,yes,yes,no,300234066214690,BD2VHI,AOML,UNKNOWN,North
2021-07-12T15:00:00Z,1626102000,2021,15,0,193.625,193.625,62.881,-20.196,1008.7,10.67,-999.0,yes,yes,no,300234066214690,BD2VHI,AOML,UNKNOWN,North
2021-07-12T18:00:00Z,1626112800,2021,18,0,193.75,193.75,62.886,-20.227,1008.0,10.78,-999.0,yes,yes,no,300234066214690,BD2VHI,AOML,UNKNOWN,North
2021-07-12T21:00:00Z,1626123600,2021,21,0,193.875,193.875,62.876,-20.244,1009.5,10.9,-999.0,yes,yes,no,300234066214690,BD2VHI,AOML,UNKNOWN,North
2021-07-13T00:00:00Z,1626134400,2021,0,0,194.0,194.0,62.871,-20.246,1010.5,10.82,-999.0,yes,yes,no,300234066214690,BD2VHI,AOML,UNKNOWN,North
2021-07-13T03:00:00Z,1626145200,2021,3,0,194.125,194.125,62.869,-20.214,1011.2,10.8,-999.0,yes,yes,no,300234066214690,BD2VHI,AOML,UNKNOWN,North
2021-07-13T06:00:00Z,1626156000,2021,6,0,194.25,194.25,62.86,-20.218,1011.0,11.02,-999.0,yes,yes,no,300234066214690,BD2VHI,AOML,UNKNOWN,North
2021-07-13T09:00:00Z,1626166800,2021,9,0,194.375,194.375,62.858,-20.23,1011.8,10.97,-999.0,yes,yes,no,300234066214690,BD2VHI,AOML,UNKNOWN,North
2021-07-13T12:00:00Z,1626177600,2021,12,0,194.5,194.5,62.859,-20.216,1012.2,11.31,-999.0,yes,yes,no,300234066214690,BD2VHI,AOML,UNKNOWN,North
2021-07-13T15:00:00Z,1626188400,2021,15,0,194.625,194.625,62.865,-20.182,1012.3,11.49,-999.0,yes,yes,no,300234066214690,BD2VHI,AOML,UNKNOWN,North
2021-07-13T18:00:00Z,1626199200,2021,18,0,194.75,194.75,62.856,-20.174,1011.6,11.57,-999.0,yes,yes,no,300234066214690,BD2VHI,AOML,UNKNOWN,North
2021-07-13T21:00:00Z,1626210000,2021,21,0,194.875,194.875,62.848,-20.224,1010.7,11.5,-999.0,yes,yes,no,300234066214690,BD2VHI,AOML,UNKNOWN,North
2021-07-14T00:00:00Z,1626220800,2021,0,0,195.0,195.0,62.864,-20.231,1009.4,11.34,-999.0,yes,yes,no,300234066214690,BD2VHI,AOML,UNKNOWN,North
2021-07-14T03:00:00Z,1626231600,2021,3,0,195.125,195.125,62.867,-20.196,1007.8,11.02,-999.0,yes,yes,no,300234066214690,BD2VHI,AOML,UNKNOWN,North
2021-07-14T06:00:00Z,1626242400,2021,6,0,195.25,195.25,62.845,-20.182,1005.4,10.93,-999.0,yes,yes,no,300234066214690,BD2VHI,AOML,UNKNOWN,North
2021-07-14T09:00:00Z,1626253200,2021,9,0,195.375,195.375,62.825,-20.23,1004.4,10.98,-999.0,yes,yes,no,300234066214690,BD2VHI,AOML,UNKNOWN,North
2021-07-14T12:00:00Z,1626264000,2021,12,0,195.5,195.5,62.82,-20.251,1003.9,10.93,-999.0,yes,yes,no,300234066214690,BD2VHI,AOML,UNKNOWN,North
2021-07-14T15:00:00Z,1626274800,2021,15,0,195.625,195.625,62.823,-20.183,1003.8,10.63,-999.0,yes,yes,no,300234066214690,BD2VHI,AOML,UNKNOWN,North
2021-07-14T18:00:00Z,1626285600,2021,18,0,195.75,195.75,62.801,-20.115,1004.9,11.33,-999.0,yes,yes,no,300234066214690,BD2VHI,AOML,UNKNOWN,North
2021-07-14T21:00:00Z,1626296400,2021,21,0,195.875,195.875,62.775,-20.073,1007.5,11.27,-999.0,yes,yes,no,300234066214690,BD2VHI,AOML,UNKNOWN,North
2021-07-15T00:00:00Z,1626307200,2021,0,0,196.0,196.0,62.753,-20.063,1010.1,11.19,-999.0,yes,yes,no,300234066214690,BD2VHI,AOML,UNKNOWN,North
2021-07-15T03:00:00Z,1626318000,2021,3,0,196.125,196.125,62.76,-20.066,1010.9,11.22,-999.0,yes,yes,no,300234066214690,BD2VHI,AOML,UNKNOWN,North
2021-07-15T06:00:00Z,1626328800,2021,6,0,196.25,196.25,62.783,-20.07,1010.8,11.15,-999.0,yes,yes,no,300234066214690,BD2VHI,AOML,UNKNOWN,North
2021-07-15T09:00:00Z,1626339600,2021,9,0,196.375,196.375,62.806,-20.055,1009.7,11.05,-999.0,yes,yes,no,300234066214690,BD2VHI,AOML,UNKNOWN,North
2021-07-15T12:00:00Z,1626350400,2021,12,0,196.5,196.5,62.814,-20.07,1007.1,11.05,-999.0,yes,yes,no,300234066214690,BD2VHI,AOML,UNKNOWN,North
2021-07-15T15:00:00Z,1626361200,2021,15,0,196.625,196.625,62.832,-20.129,1004.1,11.01,-999.0,yes,yes,no,300234066214690,BD2VHI,AOML,UNKNOWN,North
2021-07-15T18:00:00Z,1626372000,2021,18,0,196.75,196.75,62.868,-20.143,1001.9,10.92,-999.0,yes,yes,no,300234066214690,BD2VHI,AOML,UNKNOWN,North
2021-07-15T21:00:00Z,1626382800,2021,21,0,196.875,196.875,62.903,-20.148,1000.4,10.82,-999.0,yes,yes,no,300234066214690,BD2VHI,AOML,UNKNOWN,North
2021-07-16T00:00:00Z,1626393600,2021,0,0,197.0,197.0,62.926,-20.129,999.2,10.81,-999.0,yes,yes,no,300234066214690,BD2VHI,AOML,UNKNOWN,North
2021-07-16T03:00:00Z,1626404400,2021,3,0,197.125,197.125,62.944,-20.125,997.3,10.99,-999.0,yes,yes,no,300234066214690,BD2VHI,AOML,UNKNOWN,North
2021-07-16T06:00:00Z,1626415200,2021,6,0,197.25,197.25,62.969,-20.09,998.3,10.94,-999.0,yes,yes,no,300234066214690,BD2VHI,AOML,UNKNOWN,North
2021-07-16T09:00:00Z,1626426000,2021,9,0,197.375,197.375,62.982,-20.025,1000.8,10.89,-999.0,yes,yes,no,300234066214690,BD2VHI,AOML,UNKNOWN,North
2021-07-16T12:00:00Z,1626436800,2021,12,0,197.5,197.5,62.982,-19.971,1003.2,10.92,-999.0,yes,yes,no,300234066214690,BD2VHI,AOML,UNKNOWN,North
2021-07-16T15:00:00Z,1626447600,2021,15,0,197.625,197.625,62.977,-19.924,1005.6,10.94,-999.0,yes,yes,no,300234066214690,BD2VHI,AOML,UNKNOWN,North
2021-07-16T18:00:00Z,1626458400,2021,18,0,197.75,197.75,62.97,-19.904,1007.0,11.06,-999.0,yes,yes,no,300234066214690,BD2VHI,AOML,UNKNOWN,North
2021-07-16T21:00:00Z,1626469200,2021,21,0,197.875,197.875,62.966,-19.922,1008.8,10.91,-999.0,yes,yes,no,300234066214690,BD2VHI,AOML,UNKNOWN,North
2021-07-17T00:00:00Z,1626480000,2021,0,0,198.0,198.0,62.971,-19.923,1010.7,10.55,-999.0,yes,yes,no,300234066214690,BD2VHI,AOML,UNKNOWN,North
2021-07-17T03:00:00Z,1626490800,2021,3,0,198.125,198.125,62.969,-19.868,1012.2,10.55,-999.0,yes,yes,no,300234066214690,BD2VHI,AOML,UNKNOWN,North
2021-07-17T06:00:00Z,1626501600,2021,6,0,198.25,198.25,62.936,-19.816,1013.9,10.46,-999.0,yes,yes,no,300234066214690,BD2VHI,AOML,UNKNOWN,North
2021-07-17T09:00:00Z,1626512400,2021,9,0,198.375,198.375,62.911,-19.837,1016.1,10.66,-999.0,yes,yes,no,300234066214690,BD2VHI,AOML,UNKNOWN,North
2021-07-17T12:00:00Z,1626523200,2021,12,0,198.5,198.5,62.897,-19.841,1017.6,10.86,-999.0,yes,yes,no,300234066214690,BD2VHI,AOML,UNKNOWN,North
2021-07-17T15:00:00Z,1626534000,2021,15,0,198.625,198.625,62.884,-19.806,1018.5,11.05,-999.0,yes,yes,no,300234066214690,BD2VHI,AOML,UNKNOWN,North
2021-07-17T18:00:00Z,1626544800,2021,18,0,198.75,198.75,62.876,-19.764,1019.2,11.2,-999.0,yes,yes,no,300234066214690,BD2VHI,AOML,UNKNOWN,North
2021-07-17T21:00:00Z,1626555600,2021,21,0,198.875,198.875,62.864,-19.753,1019.8,11.24,-999.0,yes,yes,no,300234066214690,BD2VHI,AOML,UNKNOWN,North
2021-07-18T00:00:00Z,1626566400,2021,0,0,199.0,199.0,62.856,-19.757,1020.3,11.4,-999.0,yes,yes,no,300234066214690,BD2VHI,AOML,UNKNOWN,North
2021-07-18T03:00:00Z,1626577200,2021,3,0,199.125,199.125,62.851,-19.741,1020.5,11.35,-999.0,yes,yes,no,300234066214690,BD2VHI,AOML,UNKNOWN,North
2021-07-18T06:00:00Z,1626588000,2021,6,0,199.25,199.25,62.841,-19.725,1020.8,11.3,-999.0,yes,yes,no,300234066214690,BD2VHI,AOML,UNKNOWN,North
2021-07-18T09:00:00Z,1626598800,2021,9,0,199.375,199.375,62.837,-19.728,1021.0,11.34,-999.0,yes,yes,no,300234066214690,BD2VHI,AOML,UNKNOWN,North
2021-07-18T12:00:00Z,1626609600,2021,12,0,199.5,199.5,62.835,-19.739,1020.9,11.41,-999.0,yes,yes,no,300234066214690,BD2VHI,AOML,UNKNOWN,North
2021-07-18T15:00:00Z,1626620400,2021,15,0,199.625,199.625,62.839,-19.733,1020.3,11.29,-999.0,yes,yes,no,300234066214690,BD2VHI,AOML,UNKNOWN,North
2021-07-18T18:00:00Z,1626631200,2021,18,0,199.75,199.75,62.841,-19.708,1019.3,11.28,-999.0,yes,yes,no,300234066214690,BD2VHI,AOML,UNKNOWN,North
2021-07-18T21:00:00Z,1626642000,2021,21,0,199.875,199.875,62.842,-19.697,1018.9,11.22,-999.0,yes,yes,no,300234066214690,BD2VHI,AOML,UNKNOWN,North
2021-07-19T00:00:00Z,1626652800,2021,0,0,200.0,200.0,62.85,-19.713,1018.4,11.13,-999.0,yes,yes,no,300234066214690,BD2VHI,AOML,UNKNOWN,North
2021-07-19T03:00:00Z,1626663600,2021,3,0,200.125,200.125,62.863,-19.717,1017.9,11.11,-999.0,yes,yes,no,300234066214690,BD2VHI,AOML,UNKNOWN,North
2021-07-19T06:00:00Z,1626674400,2021,6,0,200.25,200.25,62.876,-19.714,1018.1,10.96,-999.0,yes,yes,no,300234066214690,BD2VHI,AOML,UNKNOWN,North
2021-07-19T09:00:00Z,1626685200,2021,9,0,200.375,200.375,62.887,-19.713,1017.8,11.1,-999.0,yes,yes,no,300234066214690,BD2VHI,AOML,UNKNOWN,North
2021-07-19T12:00:00Z,1626696000,2021,12,0,200.5,200.5,62.894,-19.728,1018.3,11.09,-999.0,yes,yes,no,300234066214690,BD2VHI,AOML,UNKNOWN,North
2021-07-19T15:00:00Z,1626706800,2021,15,0,200.625,200.625,62.896,-19.731,1018.3,11.01,-999.0,yes,yes,no,300234066214690,BD2VHI,AOML,UNKNOWN,North
2021-07-19T18:00:00Z,1626717600,2021,18,0,200.75,200.75,62.887,-19.725,1018.6,10.81,-999.0,yes,yes,no,300234066214690,BD2VHI,AOML,UNKNOWN,North
2021-07-19T21:00:00Z,1626728400,2021,21,0,200.875,200.875,62.889,-19.719,1019.1,10.78,-999.0,yes,yes,no,300234066214690,BD2VHI,AOML,UNKNOWN,North
2021-07-20T00:00:00Z,1626739200,2021,0,0,201.0,201.0,62.885,-19.733,1019.5,10.67,-999.0,yes,yes,no,300234066214690,BD2VHI,AOML,UNKNOWN,North
2021-07-20T03:00:00Z,1626750000,2021,3,0,201.125,201.125,62.888,-19.747,1019.3,10.72,-999.0,yes,yes,no,300234066214690,BD2VHI,AOML,UNKNOWN,North
2021-07-20T06:00:00Z,1626760800,2021,6,0,201.25,201.25,62.881,-19.738,1019.5,10.75,-999.0,yes,yes,no,300234066214690,BD2VHI,AOML,UNKNOWN,North
2021-07-20T09:00:00Z,1626771600,2021,9,0,201.375,201.375,62.878,-19.727,1019.7,10.83,-999.0,yes,yes,no,300234066214690,BD2VHI,AOML,UNKNOWN,North
2021-07-20T12:00:00Z,1626782400,2021,12,0,201.5,201.5,62.867,-19.735,1019.7,11.07,-999.0,yes,yes,no,300234066214690,BD2VHI,AOML,UNKNOWN,North
2021-07-20T15:00:00Z,1626793200,2021,15,0,201.625,201.625,62.853,-19.744,1020.2,11.28,-999.0,yes,yes,no,300234066214690,BD2VHI,AOML,UNKNOWN,North
2021-07-20T18:00:00Z,1626804000,2021,18,0,201.75,201.75,62.833,-19.74,1020.6,11.26,-999.0,yes,yes,no,300234066214690,BD2VHI,AOML,UNKNOWN,North
2021-07-20T21:00:00Z,1626814800,2021,21,0,201.875,201.875,62.817,-19.732,1020.7,11.23,-999.0,yes,yes,no,300234066214690,BD2VHI,AOML,UNKNOWN,North
2021-07-21T00:00:00Z,1626825600,2021,0,0,202.0,202.0,62.796,-19.737,1021.1,11.16,-999.0,yes,yes,no,300234066214690,BD2VHI,AOML,UNKNOWN,North
2021-07-21T03:00:00Z,1626836400,2021,3,0,202.125,202.125,62.782,-19.747,1021.1,11.16,-999.0,yes,yes,no,300234066214690,BD2VHI,AOML,UNKNOWN,North
2021-07-21T06:00:00Z,1626847200,2021,6,0,202.25,202.25,62.767,-19.736,1020.9,11.44,-999.0,yes,yes,no,300234066214690,BD2VHI,AOML,UNKNOWN,North
2021-07-21T09:00:00Z,1626858000,2021,9,0,202.375,202.375,62.748,-19.688,1021.6,11.34,-999.0,yes,yes,no,300234066214690,BD2VHI,AOML,UNKNOWN,North
2021-07-21T12:00:00Z,1626868800,2021,12,0,202.5,202.5,62.726,-19.639,1022.5,11.43,-999.0,yes,yes,no,300234066214690,BD2VHI,AOML,UNKNOWN,North
2021-07-21T15:00:00Z,1626879600,2021,15,0,202.625,202.625,62.71,-19.582,1022.7,11.44,-999.0,yes,yes,no,300234066214690,BD2VHI,AOML,UNKNOWN,North
2021-07-21T18:00:00Z,1626890400,2021,18,0,202.75,202.75,62.705,-19.487,1022.7,11.54,-999.0,yes,yes,no,300234066214690,BD2VHI,AOML,UNKNOWN,North
2021-07-21T21:00:00Z,1626901200,2021,21,0,202.875,202.875,62.715,-19.379,1022.5,11.56,-999.0,yes,yes,no,300234066214690,BD2VHI,AOML,UNKNOWN,North
2021-07-22T00:00:00Z,1626912000,2021,0,0,203.0,203.0,62.741,-19.305,1022.4,11.54,-999.0,yes,yes,no,300234066214690,BD2VHI,AOML,UNKNOWN,North
2021-07-22T03:00:00Z,1626922800,2021,3,0,203.125,203.125,62.78,-19.269,1021.7,11.53,-999.0,yes,yes,no,300234066214690,BD2VHI,AOML,UNKNOWN,North
2021-07-22T06:00:00Z,1626933600,2021,6,0,203.25,203.25,62.812,-19.253,1021.1,11.54,-999.0,yes,yes,no,300234066214690,BD2VHI,AOML,UNKNOWN,North
2021-07-22T09:00:00Z,1626944400,2021,9,0,203.375,203.375,62.849,-19.274,1020.7,11.56,-999.0,yes,yes,no,300234066214690,BD2VHI,AOML,UNKNOWN,North
2021-07-22T12:00:00Z,1626955200,2021,12,0,203.5,203.5,62.893,-19.317,1020.2,11.59,-999.0,yes,yes,no,300234066214690,BD2VHI,AOML,UNKNOWN,North
2021-07-22T15:00:00Z,1626966000,2021,15,0,203.625,203.625,62.919,-19.393,1017.8,11.59,-999.0,yes,yes,no,300234066214690,BD2VHI,AOML,UNKNOWN,North
2021-07-22T18:00:00Z,1626976800,2021,18,0,203.75,203.75,62.929,-19.504,1015.5,11.57,-999.0,yes,yes,no,300234066214690,BD2VHI,AOML,UNKNOWN,North
2021-07-22T21:00:00Z,1626987600,2021,21,0,203.875,203.875,62.938,-19.616,1014.1,11.55,-999.0,yes,yes,no,300234066214690,BD2VHI,AOML,UNKNOWN,North
2021-07-23T00:00:00Z,1626998400,2021,0,0,204.0,204.0,62.939,-19.695,1013.5,11.55,-999.0,yes,yes,no,300234066214690,BD2VHI,AOML,UNKNOWN,North
2021-07-23T03:00:00Z,1627009200,2021,3,0,204.125,204.125,62.93,-19.764,1012.5,11.44,-999.0,yes,yes,no,300234066214690,BD2VHI,AOML,UNKNOWN,North
2021-07-23T06:00:00Z,1627020000,2021,6,0,204.25,204.25,62.918,-19.857,1010.6,11.27,-999.0,yes,yes,no,300234066214690,BD2VHI,AOML,UNKNOWN,North
2021-07-23T09:00:00Z,1627030800,2021,9,0,204.375,204.375,62.918,-19.906,1010.5,11.23,-999.0,yes,yes,no,300234066214690,BD2VHI,AOML,UNKNOWN,North
2021-07-23T12:00:00Z,1627041600,2021,12,0,204.5,204.5,62.917,-19.939,1010.4,11.31,-999.0,yes,yes,no,300234066214690,BD2VHI,AOML,UNKNOWN,North
2021-07-23T15:00:00Z,1627052400,2021,15,0,204.625,204.625,62.932,-19.947,1010.3,11.32,-999.0,yes,yes,no,300234066214690,BD2VHI,AOML,UNKNOWN,North
2021-07-23T18:00:00Z,1627063200,2021,18,0,204.75,204.75,62.924,-19.959,1009.5,11.37,-999.0,yes,yes,no,300234066214690,BD2VHI,AOML,UNKNOWN,North
2021-07-23T21:00:00Z,1627074000,2021,21,0,204.875,204.875,62.902,-19.996,1008.8,11.37,-999.0,yes,yes,no,300234066214690,BD2VHI,AOML,UNKNOWN,North
2021-07-24T00:00:00Z,1627084800,2021,0,0,205.0,205.0,62.904,-20.047,1007.8,11.37,-999.0,yes,yes,no,300234066214690,BD2VHI,AOML,UNKNOWN,North
2021-07-24T03:00:00Z,1627095600,2021,3,0,205.125,205.125,62.927,-20.079,1006.0,11.3,-999.0,yes,yes,no,300234066214690,BD2VHI,AOML,UNKNOWN,North
2021-07-24T06:00:00Z,1627106400,2021,6,0,205.25,205.25,62.942,-20.074,1004.9,11.24,-999.0,yes,yes,no,300234066214690,BD2VHI,AOML,UNKNOWN,North
2021-07-24T09:00:00Z,1627117200,2021,9,0,205.375,205.375,62.936,-20.062,1004.9,11.24,-999.0,yes,yes,no,300234066214690,BD2VHI,AOML,UNKNOWN,North
2021-07-24T12:00:00Z,1627128000,2021,12,0,205.5,205.5,62.93,-20.066,1004.2,11.29,-999.0,yes,yes,no,300234066214690,BD2VHI,AOML,UNKNOWN,North
2021-07-24T15:00:00Z,1627138800,2021,15,0,205.625,205.625,62.934,-20.062,1004.0,11.31,-999.0,yes,yes,no,300234066214690,BD2VHI,AOML,UNKNOWN,North
2021-07-24T18:00:00Z,1627149600,2021,18,0,205.75,205.75,62.944,-20.051,1004.4,11.33,-999.0,yes,yes,no,300234066214690,BD2VHI,AOML,UNKNOWN,North
2021-07-24T21:00:00Z,1627160400,2021,21,0,205.875,205.875,62.938,-19.987,1005.8,11.22,-999.0,yes,yes,no,300234066214690,BD2VHI,AOML,UNKNOWN,North
2021-07-25T00:00:00Z,1627171200,2021,0,0,206.0,206.0,62.916,-19.936,1006.7,11.15,-999.0,yes,yes,no,300234066214690,BD2VHI,AOML,UNKNOWN,North
2021-07-25T03:00:00Z,1627182000,2021,3,0,206.125,206.125,62.887,-19.942,1007.0,11.23,-999.0,yes,yes,no,300234066214690,BD2VHI,AOML,UNKNOWN,North
2021-07-25T06:00:00Z,1627192800,2021,6,0,206.25,206.25,62.876,-20.006,1006.2,11.3,-999.0,yes,yes,no,300234066214690,BD2VHI,AOML,UNKNOWN,North
2021-07-25T09:00:00Z,1627203600,2021,9,0,206.375,206.375,62.887,-20.022,1005.4,11.19,-999.0,yes,yes,no,300234066214690,BD2VHI,AOML,UNKNOWN,North
2021-07-25T12:00:00Z,1627214400,2021,12,0,206.5,206.5,62.905,-19.971,1004.3,11.01,-999.0,yes,yes,no,300234066214690,BD2VHI,AOML,UNKNOWN,North
2021-07-25T15:00:00Z,1627225200,2021,15,0,206.625,206.625,62.906,-19.939,1003.1,10.99,-999.0,yes,yes,no,300234066214690,BD2VHI,AOML,UNKNOWN,North
2021-07-25T18:00:00Z,1627236000,2021,18,0,206.75,206.75,62.893,-19.944,1003.5,11.04,-999.0,yes,yes,no,300234066214690,BD2VHI,AOML,UNKNOWN,North
2021-07-25T21:00:00Z,1627246800,2021,21,0,206.875,206.875,62.879,-19.941,1004.9,11.09,-999.0,yes,yes,no,300234066214690,BD2VHI,AOML,UNKNOWN,North
2021-07-26T00:00:00Z,1627257600,2021,0,0,207.0,207.0,62.868,-19.921,1005.2,11.2,-999.0,yes,yes,no,300234066214690,BD2VHI,AOML,UNKNOWN,North
2021-07-26T03:00:00Z,1627268400,2021,3,0,207.125,207.125,62.859,-19.9,1004.9,11.29,-999.0,yes,yes,no,300234066214690,BD2VHI,AOML,UNKNOWN,North
2021-07-26T06:00:00Z,1627279200,2021,6,0,207.25,207.25,62.847,-19.887,1005.3,11.43,-999.0,yes,yes,no,300234066214690,BD2VHI,AOML,UNKNOWN,North
2021-07-26T09:00:00Z,1627290000,2021,9,0,207.375,207.375,62.825,-19.864,1006.3,11.52,-999.0,yes,yes,no,300234066214690,BD2VHI,AOML,UNKNOWN,North
2021-07-26T12:00:00Z,1627300800,2021,12,0,207.5,207.5,62.803,-19.851,1007.3,11.5,-999.0,yes,yes,no,300234066214690,BD2VHI,AOML,UNKNOWN,North
2021-07-26T15:00:00Z,1627311600,2021,15,0,207.625,207.625,62.786,-19.807,1007.6,11.5,-999.0,yes,yes,no,300234066214690,BD2VHI,AOML,UNKNOWN,North
2021-07-26T18:00:00Z,1627322400,2021,18,0,207.75,207.75,62.767,-19.76,1007.8,11.56,-999.0,yes,yes,no,300234066214690,BD2VHI,AOML,UNKNOWN,North
2021-07-26T21:00:00Z,1627333200,2021,21,0,207.875,207.875,62.753,-19.711,1008.1,11.6,-999.0,yes,yes,no,300234066214690,BD2VHI,AOML,UNKNOWN,North
2021-07-27T00:00:00Z,1627344000,2021,0,0,208.0,208.0,62.754,-19.635,1008.7,11.64,-999.0,yes,yes,no,300234066214690,BD2VHI,AOML,UNKNOWN,North
2021-07-27T03:00:00Z,1627354800,2021,3,0,208.125,208.125,62.774,-19.57,1008.7,11.62,-999.0,yes,yes,no,300234066214690,BD2VHI,AOML,UNKNOWN,North
2021-07-27T06:00:00Z,1627365600,2021,6,0,208.25,208.25,62.804,-19.537,1008.8,11.59,-999.0,yes,yes,no,300234066214690,BD2VHI,AOML,UNKNOWN,North
2021-07-27T09:00:00Z,1627376400,2021,9,0,208.375,208.375,62.828,-19.575,1009.9,11.87,-999.0,yes,yes,no,300234066214690,BD2VHI,AOML,UNKNOWN,North